Location: Andrest
(43.3200°N, 0.0641°E)
Time: 22:09:06
(UTC+00:00)

Cosmos 1821 Rocket - Pass Details

Date: 01 December 2020
Orbit: 946 x 1004 km, 82.9° (Epoch: 18 January)

Event Time Altitude Azimuth Distance (km) Brightness Sun altitude
Rises 17:29:59 0° 359° (N) 3,675 6.8 -11.6°
Reaches altitude 10° 17:32:44 10° 8° (N) 2,733 6.1 -12.0°
Maximum altitude 17:38:27 36° 74° (ENE) 1,509 4.5 -13.0°
Drops below altitude 10° 17:44:13 10° 140° (SE) 2,752 6.1 -14.0°
Sets 17:46:58 0° 148° (SSE) 3,703 6.9 -14.5°
